Wind_Speed
48 47 47 46 47 47 47 47 47 45 44 44 44 44 44 45 44 44 44 45 46 45 45 45 45 45 45 45 44 45 45 45 45 46 46 46 46 47
48 47 47 47 47 47 47 47 46 45 44 44 44 43 44 44 44 44 45 45 46 46 45 45 45 44 45 45 45 45 44 45 45 46 46 46 47 47
45 45 45 45 46 47 46 46 46 45 45 45 45 44 44 44 44 45 45 45 44 45 45 44 44 45 45 44 44 44 44 45 45 46 46 46 47 48
45 45 46 46 46 46 46 45 45 45 46 46 45 45 45 45 45 44 44 45 44 45 45 44 44 44 44 44 45 45 45 45 45 45 46 47 47 47
46 46 46 46 45 45 46 46 45 45 46 45 45 46 45 45 45 44 44 44 44 45 46 46 45 45 45 45 45 45 45 46 45 45 46 46 46 46
46 46 46 46 46 46 46 46 45 45 45 45 45 44 44 44 44 43 43 43 44 45 46 46 46 45 45 45 45 45 45 44 44 44 44 45 44 44
46 46 46 45 45 45 45 46 46 45 45 44 44 44 44 43 43 43 43 43 43 45 44 45 46 46 46 46 45 45 44 44 44 44 43 43 44 44
44 44 45 44 43 43 44 44 44 44 44 44 44 44 44 44 44 43 43 43 43 43 44 44 45 46 46 45 45 45 44 44 44 43 43 42 43 44
42 42 42 43 42 42 42 43 44 44 44 43 43 44 44 43 43 43 43 43 43 43 43 43 44 45 45 45 44 45 45 44 44 43 42 42 42 42
42 42 43 43 42 41 42 43 43 43 43 43 43 43 43 42 42 42 42 43 43 43 43 43 43 44 44 44 45 45 45 44 44 44 43 42 42 42
41 41 41 42 41 42 41 41 41 42 42 42 42 42 42 41 41 41 42 43 43 43 43 43 42 42 42 43 44 44 44 44 44 43 42 41 41 40
40 40 40 40 39 40 40 39 39 39 40 41 40 41 40 40 41 41 42 42 42 42 42 43 43 42 42 41 42 42 42 43 43 41 40 39 39 38
39 39 38 38 38 38 38 38 38 39 39 39 39 39 40 40 41 42 42 42 42 42 42 43 43 42 41 40 40 40 41 41 40 39 38 37 37 37
37 37 36 36 37 36 37 36 36 37 38 39 39 39 40 40 40 40 41 42 42 41 41 41 41 41 40 39 38 38 38 38 37 37 36 36 35 36
35 35 36 36 36 35 35 35 35 36 38 38 38 39 39 39 40 40 40 40 40 40 40 40 40 40 39 38 37 37 36 35 35 34 34 33 33 34
33 34 35 36 35 35 34 35 35 35 35 36 36 37 38 38 38 39 39 39 39 39 39 39 38 38 37 37 36 35 34 33 33 32 32 32 33 33
32 31 32 33 33 33 34 34 34 34 34 35 35 36 37 37 37 37 37 38 38 38 37 37 36 36 36 35 35 34 33 32 32 32 31 32 33 33
31 30 30 31 32 32 33 33 33 33 33 33 33 34 35 35 35 35 36 36 36 36 36 37 36 35 35 34 34 33 32 32 31 31 31 31 31 32
29 30 30 30 30 31 31 31 30 30 31 31 31 32 32 33 34 34 35 35 35 35 35 35 34 34 32 32 32 32 31 30 30 30 30 30 29 29
29 29 29 29 29 28 28 29 30 30 31 31 31 31 32 32 34 34 34 34 34 34 34 33 32 31 31 30 30 30 30 29 29 28 28 28 28 28
29 29 29 28 28 28 28 29 30 31 31 31 31 31 32 32 33 34 33 33 33 33 32 31 31 31 30 29 28 28 28 28 28 27 27 26 27 27
29 29 28 28 28 28 29 29 30 30 31 31 31 31 32 32 33 33 33 32 32 32 31 30 30 29 29 28 27 26 26 26 26 26 25 25 25 25
28 29 29 29 29 29 29 29 30 30 31 31 32 32 32 33 33 33 32 32 31 31 29 29 28 27 27 26 25 24 24 24 24 24 23 23 24 24
Wind_Direction
268 268 269 269 269 270 270 270 270 271 273 275 275 276 277 277 278 279 279 279 278 279 280 280 279 279 280 280 281 282 282 283 283 284 285 285 286 286
268 269 268 269 268 269 270 270 270 271 272 274 274 275 276 277 278 278 280 281 280 279 280 280 280 279 279 279 280 282 282 282 283 285 285 285 285 286
268 269 269 270 269 269 269 269 270 271 272 273 274 276 277 278 279 279 281 281 281 279 280 281 280 280 280 280 280 281 282 282 283 284 285 286 286 286
267 268 269 269 269 268 268 268 271 272 272 273 275 276 278 279 280 280 280 281 281 281 280 281 281 281 281 281 281 282 282 283 283 283 285 285 285 285
267 268 269 268 267 267 268 269 271 271 272 274 275 276 278 278 280 281 281 281 281 282 281 281 282 282 282 282 282 282 282 283 283 284 284 285 286 286
265 267 268 267 266 267 267 268 269 271 272 273 275 276 278 278 279 280 281 282 282 283 283 282 282 282 283 283 282 282 284 284 283 284 284 285 286 286
266 267 267 267 266 267 267 267 268 270 271 273 274 275 277 278 278 279 280 281 282 284 285 284 284 284 283 284 283 283 284 285 285 284 283 285 286 286
265 265 265 264 265 266 266 267 268 269 271 272 274 275 276 278 278 278 280 282 284 284 284 284 285 286 285 285 284 284 284 285 286 285 284 284 286 287
264 263 262 262 264 265 266 267 268 269 271 272 274 275 276 277 278 279 280 281 283 284 283 284 285 287 286 286 285 284 283 284 286 286 285 285 285 286
264 263 261 262 263 263 265 267 269 269 270 272 274 274 275 277 279 279 280 282 283 283 284 285 285 287 286 286 286 285 284 285 286 286 286 286 286 286
262 262 262 262 262 263 265 268 269 269 271 273 274 274 275 278 280 280 281 282 283 283 283 284 285 286 286 286 286 287 285 285 286 286 286 287 288 287
260 261 261 262 262 263 265 267 269 271 273 274 275 275 276 278 280 281 282 283 283 283 283 284 285 286 285 286 287 287 286 286 286 284 285 286 287 287
260 260 263 265 265 266 266 267 269 271 273 274 275 276 277 279 280 281 282 283 284 284 284 285 286 286 286 286 286 286 286 285 284 283 284 285 285 285
260 261 263 265 266 266 267 267 269 270 271 273 273 276 279 281 281 281 282 284 285 286 286 286 286 286 287 287 287 287 286 285 284 283 283 284 284 285
261 262 263 265 265 265 266 267 269 270 272 273 274 277 279 281 280 281 282 284 285 286 288 287 287 287 287 287 286 287 286 285 284 284 284 284 285 286
262 263 263 264 265 266 266 267 269 271 273 274 276 277 279 280 281 282 283 284 285 287 288 288 288 287 286 285 286 286 285 284 283 282 283 285 286 288
263 264 265 264 264 264 266 267 269 271 273 275 278 279 280 281 282 283 284 285 285 286 287 287 287 286 285 285 285 286 286 285 284 284 284 285 287 289
263 264 265 264 264 266 268 269 271 272 274 276 279 280 281 282 283 284 285 286 286 286 286 286 286 285 284 284 285 287 287 285 284 285 286 286 287 288
263 265 266 268 269 269 270 271 271 273 276 279 282 283 284 283 284 286 287 288 288 287 287 286 285 284 283 285 285 286 286 285 285 285 285 286 287 288
264 266 267 269 270 271 272 272 273 276 279 282 283 285 285 285 286 287 289 288 288 288 288 287 286 284 283 284 285 286 285 285 285 286 286 286 287 289
264 266 268 270 271 272 272 274 277 279 281 282 283 284 285 287 288 288 288 288 289 289 289 288 287 285 284 284 286 286 286 286 287 287 287 287 288 289
264 265 266 267 270 273 274 276 278 280 281 282 282 283 285 287 288 287 287 287 288 289 287 285 285 284 283 283 285 286 285 286 288 290 289 289 289 290
266 266 266 266 269 273 275 277 279 280 281 281 282 283 285 286 287 287 286 286 286 287 285 282 282 282 281 281 283 284 284 285 287 289 290 290 290 290
Height
5691 5691 5691 5692 5692 5692 5691 5691 5691 5691 5691 5691 5689 5688 5685 5684 5682 5681 5679 5678 5677 5675 5674 5673 5671 5670 5669 5668 5666 5664 5662 5660 5658 5655 5653 5650 5647 5645
5679 5679 5679 5679 5679 5679 5679 5679 5679 5678 5678 5679 5677 5676 5674 5672 5671 5669 5667 5666 5664 5663 5662 5660 5659 5657 5656 5654 5653 5651 5649 5647 5645 5642 5640 5637 5634 5631
5666 5666 5667 5667 5667 5667 5667 5667 5667 5666 5666 5666 5665 5664 5662 5661 5659 5657 5655 5654 5652 5651 5649 5648 5646 5645 5643 5641 5639 5638 5636 5634 5632 5629 5626 5624 5621 5618
5654 5654 5655 5654 5654 5655 5655 5655 5655 5655 5654 5654 5653 5652 5651 5649 5647 5645 5644 5643 5641 5639 5637 5636 5634 5632 5630 5628 5627 5625 5623 5620 5618 5616 5614 5611 5608 5604
5641 5641 5642 5642 5642 5642 5643 5643 5643 5643 5642 5642 5641 5640 5639 5638 5636 5634 5633 5632 5630 5628 5626 5624 5622 5620 5618 5616 5614 5612 5609 5608 5606 5603 5600 5597 5594 5591
5627 5628 5629 5629 5629 5630 5630 5631 5631 5630 5630 5630 5629 5629 5628 5626 5625 5623 5622 5621 5619 5617 5615 5613 5610 5608 5606 5603 5601 5599 5597 5594 5592 5590 5587 5585 5582 5578
5614 5615 5616 5616 5617 5617 5618 5618 5618 5618 5618 5618 5617 5617 5616 5615 5614 5612 5611 5609 5607 5605 5603 5601 5599 5597 5594 5591 5588 5586 5583 5581 5579 5577 5574 5572 5569 5566
5601 5602 5603 5604 5605 5606 5606 5606 5607 5606 5606 5606 5606 5605 5605 5604 5602 5601 5599 5598 5596 5595 5592 5590 5587 5584 5582 5579 5576 5573 5571 5568 5566 5564 5561 5559 5556 5553
5589 5590 5591 5593 5593 5594 5595 5595 5595 5595 5595 5595 5594 5594 5593 5593 5591 5589 5588 5586 5584 5582 5580 5578 5575 5572 5569 5566 5563 5561 5558 5556 5554 5551 5549 5546 5543 5540
5578 5579 5580 5581 5582 5582 5583 5583 5583 5584 5584 5584 5584 5583 5582 5581 5579 5578 5576 5574 5572 5570 5567 5566 5564 5561 5558 5554 5551 5549 5546 5544 5541 5539 5536 5533 5531 5528
5567 5568 5568 5569 5570 5571 5572 5572 5573 5573 5573 5572 5572 5571 5570 5569 5568 5566 5565 5563 5561 5559 5556 5554 5552 5549 5546 5543 5540 5537 5534 5532 5529 5526 5524 5521 5518 5516
5556 5557 5557 5558 5559 5560 5560 5561 5562 5562 5562 5562 5561 5560 5559 5558 5557 5555 5553 5551 5549 5547 5545 5543 5540 5537 5536 5532 5528 5525 5522 5520 5517 5514 5512 5509 5506 5504
5546 5547 5547 5548 5549 5550 5550 5551 5551 5552 5551 5551 5550 5549 5548 5547 5545 5543 5541 5539 5537 5535 5533 5530 5528 5525 5522 5520 5517 5514 5511 5508 5506 5503 5500 5498 5496 5493
5536 5537 5537 5538 5538 5539 5539 5540 5541 5541 5541 5540 5540 5539 5538 5536 5534 5532 5530 5527 5525 5523 5521 5518 5515 5512 5510 5507 5505 5503 5500 5497 5495 5493 5490 5488 5486 5483
5526 5526 5527 5528 5528 5529 5529 5530 5530 5530 5530 5529 5529 5528 5527 5525 5523 5521 5518 5516 5513 5511 5508 5506 5503 5500 5498 5496 5494 5492 5490 5487 5485 5483 5480 5478 5476 5474
5516 5516 5517 5518 5518 5519 5520 5520 5520 5520 5520 5519 5518 5517 5515 5514 5512 5510 5507 5505 5503 5500 5497 5494 5491 5489 5487 5485 5483 5481 5479 5477 5475 5473 5471 5469 5467 5465
5507 5507 5507 5508 5509 5510 5510 5511 5511 5510 5510 5509 5508 5507 5505 5503 5501 5499 5497 5494 5492 5489 5487 5484 5481 5478 5476 5474 5472 5471 5469 5467 5466 5464 5462 5460 5458 5456
5498 5498 5499 5499 5501 5501 5501 5501 5502 5501 5500 5499 5498 5497 5495 5493 5491 5489 5486 5484 5481 5479 5476 5474 5471 5469 5467 5465 5463 5461 5460 5458 5456 5454 5453 5451 5449 5447
5489 5490 5490 5491 5492 5492 5493 5493 5492 5492 5491 5490 5488 5487 5485 5483 5481 5479 5476 5474 5471 5469 5466 5464 5462 5460 5458 5457 5454 5452 5451 5449 5447 5446 5444 5442 5441 5439
5480 5481 5482 5483 5484 5484 5484 5484 5483 5482 5481 5480 5479 5477 5476 5474 5472 5470 5467 5464 5462 5459 5457 5455 5453 5451 5450 5448 5447 5445 5442 5441 5439 5438 5436 5434 5432 5431
5472 5473 5474 5475 5475 5475 5475 5475 5474 5473 5472 5471 5470 5468 5467 5465 5463 5460 5458 5455 5453 5450 5448 5446 5444 5443 5441 5440 5438 5437 5435 5433 5431 5430 5428 5426 5425 5423
5464 5465 5466 5467 5467 5467 5466 5466 5465 5464 5463 5462 5461 5459 5458 5456 5454 5451 5449 5446 5444 5441 5439 5438 5436 5434 5433 5432 5430 5429 5428 5426 5424 5422 5420 5419 5417 5416
5456 5457 5457 5458 5458 5458 5457 5457 5456 5455 5454 5453 5451 5450 5448 5446 5444 5442 5440 5437 5435 5433 5431 5429 5428 5426 5425 5424 5423 5422 5420 5419 5417 5416 5414 5412 5410 5408